Location: Góry Miechowskie
(50.3599°N, 20.1803°E)
Time: 10:24:20
(UTC+00:00)

Transit 2A - Visible Passes

Search period start: 07 September 2024 00:00
Search period end: 17 September 2024 00:00
Orbit: 590 x 961 km, 66.7° (Epoch: 06 September)

Date Brightness Start Highest point End Pass type
(mag) Time Alt. Az. Time Alt. Az. Time Alt. Az.
07 Sep 8.7 01:06:09 10° NNW 01:11:04 23° NNE 01:15:55 10° ENE visible
07 Sep 7.3 02:49:27 10° NNW 02:55:42 54° NE 03:01:38 10° ESE visible
07 Sep 7.8 17:35:38 10° SE 17:38:50 15° E 17:42:07 10° ENE visible
07 Sep 6.3 19:15:00 10° SSW 19:20:53 71° ESE 19:27:11 10° NE visible
07 Sep 7.9 20:59:01 10° W 21:04:36 36° NW 21:10:26 10° NNE visible
07 Sep 8.9 22:45:19 10° NW 22:49:41 19° N 22:54:06 10° NNE visible
08 Sep 8.8 00:30:37 10° NNW 00:35:15 20° NNE 00:39:50 10° ENE visible
08 Sep 7.7 02:14:05 10° NNW 02:20:08 43° NE 02:25:55 10° ESE visible
08 Sep 6.5 18:39:52 10° SSW 18:45:35 53° ESE 18:51:42 10° NE visible
08 Sep 7.5 20:23:12 10° WSW 20:28:59 44° NW 20:35:04 10° NNE visible
08 Sep 8.8 22:09:14 10° WNW 22:13:49 21° NNW 22:18:29 10° NNE visible
08 Sep 8.9 23:55:00 10° NW 23:59:24 19° N 00:03:45 10° NE visible
09 Sep 8.0 01:38:41 10° NNW 01:44:29 35° NE 01:50:04 10° E visible
09 Sep 6.4 03:21:55 10° NW 03:28:15 74° WSW 03:34:12 10° SSE visible
09 Sep 6.8 18:04:56 10° S 18:10:21 39° ESE 18:16:07 10° NE visible
09 Sep 7.1 19:47:28 10° WSW 19:53:24 55° NW 19:59:40 10° NNE visible
09 Sep 8.6 21:33:09 10° WNW 21:38:00 23° NNW 21:42:57 10° NNE visible
09 Sep 9.0 23:19:16 10° NW 23:23:30 18° N 23:27:44 10° NE visible
10 Sep 8.3 01:03:17 10° NNW 01:08:47 29° NNE 01:14:07 10° E visible
10 Sep 6.5 02:46:29 10° NW 02:52:52 86° NE 02:58:53 10° SE visible
10 Sep 7.2 17:30:13 10° SSE 17:35:11 29° ESE 17:40:25 10° NE visible
10 Sep 6.7 19:11:54 10° SW 19:17:54 71° NW 19:24:17 10° NE visible
10 Sep 8.4 20:57:05 10° W 21:02:13 26° NNW 21:07:29 10° NNE visible
10 Sep 9.0 22:43:25 10° NW 22:47:36 18° N 22:51:48 10° NE visible
11 Sep 8.5 00:27:50 10° NNW 00:33:02 25° NNE 00:38:06 10° E visible
11 Sep 6.8 02:11:04 10° NW 02:17:25 67° NE 02:23:23 10° SE visible
11 Sep 6.4 18:36:26 10° SW 18:42:27 90° SE 18:48:51 10° NE visible
11 Sep 8.2 20:21:04 10° W 20:26:28 31° NNW 20:32:02 10° NNE visible
11 Sep 8.9 22:07:28 10° NW 22:11:42 18° N 22:15:58 10° NE visible
11 Sep 8.7 23:52:21 10° NNW 23:57:14 22° NNE 00:02:01 10° ENE visible
12 Sep 7.2 01:35:40 10° NNW 01:41:53 52° NE 01:47:46 10° ESE visible
12 Sep 6.7 03:19:10 10° NW 03:25:01 41° WSW 03:30:30 10° S visible
12 Sep 6.4 18:01:08 10° SSW 18:07:04 69° ESE 18:13:23 10° NE visible
12 Sep 7.9 19:45:07 10° WSW 19:50:46 37° NW 19:56:38 10° NNE visible
12 Sep 8.9 21:31:25 10° NW 21:35:49 19° N 21:40:15 10° NNE visible
12 Sep 8.8 23:16:47 10° NNW 23:21:23 20° NNE 23:25:55 10° ENE visible
13 Sep 7.6 01:00:16 10° NNW 01:06:17 42° NE 01:12:01 10° ESE visible
13 Sep 6.4 02:43:36 10° NW 02:49:45 56° WSW 02:55:30 10° SSE visible
13 Sep 6.6 17:26:01 10° S 17:31:46 51° ESE 17:37:52 10° NE visible
13 Sep 7.5 19:09:17 10° WSW 19:15:08 45° NW 19:21:14 10° NNE visible
13 Sep 8.8 20:55:19 10° WNW 20:59:57 21° NNW 21:04:39 10° NNE visible
13 Sep 8.9 22:41:08 10° NW 22:45:30 19° N 22:49:49 10° NE visible
14 Sep 7.9 00:24:52 10° NNW 00:30:38 34° NE 00:36:09 10° E visible
14 Sep 6.3 02:08:06 10° NW 02:14:26 76° WSW 02:20:19 10° SSE visible
14 Sep 7.1 18:33:34 10° SW 18:39:33 57° NW 18:45:50 10° NNE visible
14 Sep 8.6 20:19:12 10° WNW 20:24:06 23° NNW 20:29:06 10° NNE visible
14 Sep 8.9 22:05:22 10° NW 22:09:36 18° N 22:13:48 10° NE visible
14 Sep 8.2 23:49:26 10° NNW 23:54:55 29° NNE 00:00:11 10° E visible
15 Sep 6.4 01:32:38 10° NW 01:39:01 83° NE 01:44:58 10° SE visible
15 Sep 7.4 03:16:48 10° WNW 03:21:28 23° WSW 03:25:56 10° SSW visible
15 Sep 6.7 17:57:59 10° SW 18:04:01 72° NW 18:10:25 10° NE visible
15 Sep 8.4 19:43:07 10° W 19:48:18 27° NNW 19:53:37 10° NNE visible
15 Sep 8.9 21:29:30 10° NW 21:33:41 18° N 21:37:52 10° NE visible
15 Sep 8.4 23:13:59 10° NNW 23:19:07 25° NNE 23:24:07 10° ENE visible
16 Sep 6.7 00:57:12 10° NW 01:03:32 65° NE 01:09:27 10° SE visible
16 Sep 7.0 02:40:58 10° NW 02:46:20 31° WSW 02:51:24 10° S visible
16 Sep 6.5 17:22:31 10° SSW 17:28:34 88° ESE 17:34:58 10° NE visible
16 Sep 8.2 19:07:06 10° W 19:12:33 31° NNW 19:18:10 10° NNE visible
16 Sep 8.9 20:53:30 10° NW 20:57:47 18° N 21:02:03 10° NE visible
16 Sep 8.6 22:38:28 10° NNW 22:43:18 22° NNE 22:48:01 10° ENE visible
